Weather History for Montauk, NY

Change the Weather History Date:

Sunday, August 17, 2014

  Actual Average (KHTO) Record (KHTO)
Temperature  
Mean Temperature 73 °F -  
Max Temperature 79 °F 80 °F 96 °F (2011)
Min Temperature 68 °F 63 °F 50 °F (1945)
Cooling Degree Days 8    
Growing Degree Days 23 (Base 50)    
Moisture  
Dew Point 63 °F    
Average Humidity 72    
Maximum Humidity 90    
Minimum Humidity 56    
Precipitation  
Precipitation 0.00 in - - ()
Sea Level Pressure  
Sea Level Pressure 29.85 in    
Wind  
Wind Speed 6 mph (WSW)    
Max Wind Speed 9 mph    
Max Gust Speed -    
Averages and records for this station are not official NWS values.
T = Trace of Precipitation, MM = Missing Value Source: NWS Daily Summary

Daily Weather History Graph

Daily Weather History Graph

Search for Another Location

Airport:

Trip Planner

Search our weather history database for the weather conditions in past years. The results will help you decide how hot, cold, wet, or windy it might be!

Date:

Astronomy

Aug. 17, 2014 Rise Set
Actual Time 5:59 AM EDT 7:43 PM EDT
Civil Twilight 5:29 AM EDT 8:12 PM EDT
Nautical Twilight 4:54 AM EDT 8:48 PM EDT
Astronomical Twilight 4:15 AM EDT 9:26 PM EDT
Moon No Moon Rise 1:46 PM EDT (8/17)
Length of Visible Light 14h 42m
Length of Day
13h 44m
Waning Gibbous, 48% of the Moon is Illuminated
Aug 17
Waning Gibbous
Aug 25
New
Sep 2
First Quarter
Sep 8
Full
Sep 15
Last Quarter

Hourly Weather History & Observations

Time (EDT) Temp. Dew Point Humidity Pressure Visibility Wind Dir Wind Speed Gust Speed Precip Events Conditions
12:54 AM 69.1 °F 66.0 °F 90% 29.92 in - Variable 3.5 mph - N/A   Unknown
1:54 AM 70.0 °F 66.9 °F 90% 29.90 in - SW 6.9 mph - N/A   Unknown
3:54 AM 69.1 °F 66.0 °F 90% 29.88 in - SW 3.5 mph - N/A   Unknown
4:54 AM 69.1 °F 66.0 °F 90% 29.89 in - SW 4.6 mph - N/A   Unknown
5:54 AM 68.0 °F 63.0 °F 84% 29.88 in - SW 3.5 mph - N/A   Unknown
6:54 AM 70.0 °F 62.1 °F 76% 29.88 in - SW 6.9 mph - N/A   Unknown
7:54 AM 72.0 °F 63.0 °F 73% 29.88 in - SW 5.8 mph - N/A   Unknown
8:54 AM 73.0 °F 63.0 °F 71% 29.87 in - SW 5.8 mph - N/A   Unknown
9:54 AM 73.0 °F 64.9 °F 76% 29.86 in - SW 6.9 mph - N/A   Unknown
10:54 AM 75.0 °F 61.0 °F 62% 29.86 in - West 9.2 mph - N/A   Unknown
11:54 AM 75.9 °F 61.0 °F 60% 29.85 in - SW 6.9 mph - N/A   Unknown
12:54 PM 78.1 °F 61.0 °F 56% 29.83 in - SW 4.6 mph - N/A   Unknown
1:54 PM 75.9 °F 64.9 °F 69% 29.82 in - SSW 6.9 mph - N/A   Unknown
2:54 PM 75.9 °F 64.9 °F 69% 29.82 in - SW 8.1 mph - N/A   Unknown
3:54 PM 77.0 °F 63.0 °F 62% 29.81 in - WNW 5.8 mph - N/A   Unknown
4:54 PM 77.0 °F 63.0 °F 62% 29.81 in - West 5.8 mph - N/A   Unknown
5:54 PM 77.0 °F 64.0 °F 64% 29.81 in - West 5.8 mph - N/A   Unknown
6:54 PM 75.0 °F 63.0 °F 66% 29.81 in - WNW 5.8 mph - N/A   Unknown
7:54 PM 73.0 °F 64.0 °F 73% 29.83 in - West 5.8 mph - N/A   Unknown
8:54 PM 72.0 °F 63.0 °F 73% 29.85 in - WNW 5.8 mph - N/A   Unknown
9:54 PM 72.0 °F 61.0 °F 68% 29.86 in - NW 6.9 mph - N/A   Unknown
10:54 PM 70.0 °F 60.1 °F 71% 29.87 in - NW 6.9 mph - N/A   Unknown
11:54 PM 70.0 °F 57.9 °F 65% 29.87 in - NW 8.1 mph - N/A   Unknown